Time,TemperatureF,DewpointF,PressureIn,WindDirection,WindDirectionDegrees,WindSpeedMPH,WindSpeedGustMPH,Humidity,HourlyPrecipIn,Conditions,Clouds,dailyrainin,SoftwareType,DateUTC
2013-09-05 00:01:00,67.5,51.7,29.50,SSW,202,2.9,2.9,57,0.00,,,0.00,VWS V14.01,2013-09-05 04:01:00,
2013-09-05 00:02:00,67.3,52.0,29.50,SSW,202,2.2,2.2,58,0.00,,,0.00,VWS V14.01,2013-09-05 04:02:00,
2013-09-05 00:07:00,67.1,51.8,29.50,SSW,202,3.1,3.1,58,0.00,,,0.00,VWS V14.01,2013-09-05 04:07:00,
2013-09-05 00:12:00,67.1,52.3,29.50,SSW,202,1.6,1.6,59,0.00,,,0.00,VWS V14.01,2013-09-05 04:12:00,
2013-09-05 00:17:00,67.1,52.3,29.50,SSW,202,2.5,2.5,59,0.00,,,0.00,VWS V14.01,2013-09-05 04:17:00,
2013-09-05 00:22:00,67.1,51.8,29.50,SSW,202,2.7,2.7,58,0.00,,,0.00,VWS V14.01,2013-09-05 04:22:00,
2013-09-05 00:27:00,67.1,52.3,29.50,SSW,202,2.7,2.7,59,0.00,,,0.00,VWS V14.01,2013-09-05 04:27:00,
2013-09-05 00:32:00,66.9,52.1,29.50,SSE,158,2.7,2.7,59,0.00,,,0.00,VWS V14.01,2013-09-05 04:32:00,
2013-09-05 00:37:00,66.9,52.1,29.50,SSW,202,3.6,3.6,59,0.00,,,0.00,VWS V14.01,2013-09-05 04:37:00,
2013-09-05 00:42:00,66.9,52.6,29.50,South,180,2.5,2.5,60,0.00,,,0.00,VWS V14.01,2013-09-05 04:42:00,
2013-09-05 00:47:00,66.9,52.6,29.50,SSW,202,2.9,2.9,60,0.00,,,0.00,VWS V14.01,2013-09-05 04:47:00,
2013-09-05 00:52:00,66.9,52.6,29.50,WSW,248,0.0,0.0,60,0.00,,,0.00,VWS V14.01,2013-09-05 04:52:00,
2013-09-05 00:58:00,66.9,52.6,29.50,South,180,2.0,2.0,60,0.00,,,0.00,VWS V14.01,2013-09-05 04:58:00,
2013-09-05 01:03:00,66.7,52.4,29.50,WSW,248,0.0,0.0,60,0.00,,,0.00,VWS V14.01,2013-09-05 05:03:00,
2013-09-05 01:08:00,66.6,52.7,29.50,SSW,202,2.5,2.5,61,0.00,,,0.00,VWS V14.01,2013-09-05 05:08:00,
2013-09-05 01:13:00,66.4,52.1,29.50,WSW,248,0.9,0.9,60,0.00,,,0.00,VWS V14.01,2013-09-05 05:13:00,
2013-09-05 01:18:00,66.4,52.5,29.50,SSW,202,2.5,2.5,61,0.00,,,0.00,VWS V14.01,2013-09-05 05:18:00,
2013-09-05 01:23:00,66.4,52.5,29.50,SSW,202,2.2,2.2,61,0.00,,,0.00,VWS V14.01,2013-09-05 05:23:00,
2013-09-05 01:28:00,66.4,52.5,29.47,SW,225,0.0,0.0,61,0.00,,,0.00,VWS V14.01,2013-09-05 05:28:00,
2013-09-05 01:33:00,66.2,52.8,29.47,SSW,202,2.9,2.9,62,0.00,,,0.00,VWS V14.01,2013-09-05 05:33:00,
2013-09-05 01:38:00,66.2,52.4,29.47,SSW,202,2.0,2.0,61,0.00,,,0.00,VWS V14.01,2013-09-05 05:38:00,
2013-09-05 01:43:00,66.0,53.1,29.50,SSW,202,2.2,2.2,63,0.00,,,0.00,VWS V14.01,2013-09-05 05:43:00,
2013-09-05 01:48:00,65.8,52.9,29.50,South,180,2.5,2.5,63,0.00,,,0.00,VWS V14.01,2013-09-05 05:48:00,
2013-09-05 01:53:00,65.7,52.7,29.50,South,180,2.5,2.5,63,0.00,,,0.00,VWS V14.01,2013-09-05 05:53:00,
2013-09-05 01:58:00,65.7,52.7,29.50,SSW,202,2.0,2.0,63,0.00,,,0.00,VWS V14.01,2013-09-05 05:58:00,
2013-09-05 02:03:00,65.7,53.2,29.50,SSW,202,2.7,2.7,64,0.00,,,0.00,VWS V14.01,2013-09-05 06:03:00,
2013-09-05 02:08:00,65.8,53.3,29.50,WSW,248,1.1,1.1,64,0.00,,,0.00,VWS V14.01,2013-09-05 06:08:00,
2013-09-05 02:13:00,65.8,52.9,29.50,WSW,248,2.5,2.5,63,0.00,,,0.00,VWS V14.01,2013-09-05 06:13:00,
2013-09-05 02:18:00,66.2,53.2,29.50,SW,225,0.9,0.9,63,0.00,,,0.00,VWS V14.01,2013-09-05 06:18:00,
2013-09-05 02:23:00,66.4,53.4,29.50,South,180,1.6,1.6,63,0.00,,,0.00,VWS V14.01,2013-09-05 06:23:00,
2013-09-05 02:28:00,66.4,53.4,29.50,SSW,202,2.5,2.5,63,0.00,,,0.00,VWS V14.01,2013-09-05 06:28:00,
2013-09-05 02:34:00,66.6,53.2,29.50,East,90,1.3,1.3,62,0.00,,,0.00,VWS V14.01,2013-09-05 06:34:00,
2013-09-05 02:39:00,66.6,53.2,29.50,SSW,202,3.4,3.4,62,0.00,,,0.00,VWS V14.01,2013-09-05 06:39:00,
2013-09-05 02:44:00,66.6,53.6,29.47,SW,225,0.0,0.0,63,0.00,,,0.00,VWS V14.01,2013-09-05 06:44:00,
2013-09-05 02:49:00,66.4,53.4,29.47,SSW,202,3.8,3.8,63,0.00,,,0.00,VWS V14.01,2013-09-05 06:49:00,
2013-09-05 02:54:00,66.4,53.4,29.47,SSW,202,3.1,3.1,63,0.00,,,0.00,VWS V14.01,2013-09-05 06:54:00,
2013-09-05 02:59:00,66.4,53.0,29.47,South,180,3.4,3.4,62,0.00,,,0.00,VWS V14.01,2013-09-05 06:59:00,
2013-09-05 03:04:00,66.6,53.2,29.47,WSW,248,0.0,0.0,62,0.00,,,0.00,VWS V14.01,2013-09-05 07:04:00,
2013-09-05 03:09:00,66.4,53.0,29.47,WSW,248,0.0,0.0,62,0.00,,,0.00,VWS V14.01,2013-09-05 07:09:00,
2013-09-05 03:14:00,66.2,52.8,29.50,WSW,248,1.6,1.6,62,0.00,,,0.00,VWS V14.01,2013-09-05 07:14:00,
2013-09-05 03:19:00,66.2,52.8,29.50,WSW,248,3.1,3.1,62,0.00,,,0.00,VWS V14.01,2013-09-05 07:19:00,
2013-09-05 03:24:00,66.0,53.1,29.50,WSW,248,2.5,2.5,63,0.00,,,0.00,VWS V14.01,2013-09-05 07:24:00,
2013-09-05 03:29:00,66.0,53.1,29.47,West,270,3.6,3.6,63,0.00,,,0.00,VWS V14.01,2013-09-05 07:29:00,
2013-09-05 03:34:00,66.0,53.5,29.47,WNW,292,4.3,4.3,64,0.00,,,0.00,VWS V14.01,2013-09-05 07:34:00,
2013-09-05 03:39:00,66.0,53.5,29.47,SW,225,1.6,1.6,64,0.00,,,0.00,VWS V14.01,2013-09-05 07:39:00,
2013-09-05 03:44:00,66.0,53.5,29.47,West,270,3.6,3.6,64,0.00,,,0.00,VWS V14.01,2013-09-05 07:44:00,
2013-09-05 03:49:00,66.0,53.5,29.47,WSW,248,2.5,2.5,64,0.00,,,0.00,VWS V14.01,2013-09-05 07:49:00,
2013-09-05 03:54:00,65.8,53.3,29.47,West,270,4.3,4.3,64,0.00,,,0.00,VWS V14.01,2013-09-05 07:54:00,
2013-09-05 03:59:00,66.0,53.9,29.47,West,270,5.4,5.4,65,0.00,,,0.00,VWS V14.01,2013-09-05 07:59:00,
2013-09-05 04:04:00,66.2,54.1,29.47,WNW,292,4.9,4.9,65,0.00,,,0.00,VWS V14.01,2013-09-05 08:04:00,
2013-09-05 04:09:00,66.4,54.3,29.47,SE,135,1.1,1.1,65,0.00,,,0.00,VWS V14.01,2013-09-05 08:09:00,
2013-09-05 04:14:00,66.4,54.3,29.47,South,180,2.9,2.9,65,0.00,,,0.00,VWS V14.01,2013-09-05 08:14:00,
2013-09-05 04:19:00,66.2,54.1,29.47,SSW,202,1.6,1.6,65,0.00,,,0.00,VWS V14.01,2013-09-05 08:19:00,
2013-09-05 04:24:00,66.0,54.3,29.47,West,270,1.3,1.3,66,0.00,,,0.00,VWS V14.01,2013-09-05 08:24:00,
2013-09-05 04:29:00,65.8,54.2,29.47,SSW,202,0.0,0.0,66,0.00,,,0.00,VWS V14.01,2013-09-05 08:29:00,
2013-09-05 04:34:00,65.5,54.2,29.47,SE,135,0.0,0.0,67,0.00,,,0.00,VWS V14.01,2013-09-05 08:34:00,
2013-09-05 04:39:00,65.5,54.2,29.47,SSE,158,1.6,1.6,67,0.00,,,0.00,VWS V14.01,2013-09-05 08:39:00,
2013-09-05 04:44:00,65.3,54.1,29.47,SSE,158,2.2,2.2,67,0.00,,,0.00,VWS V14.01,2013-09-05 08:44:00,
2013-09-05 04:49:00,65.1,54.3,29.47,SE,135,0.0,0.0,68,0.00,,,0.00,VWS V14.01,2013-09-05 08:49:00,
2013-09-05 04:54:00,64.9,53.7,29.47,SSW,202,0.0,0.0,67,0.00,,,0.00,VWS V14.01,2013-09-05 08:54:00,
2013-09-05 05:00:00,64.8,54.0,29.47,SSW,202,1.3,1.3,68,0.00,,,0.00,VWS V14.01,2013-09-05 09:00:00,
2013-09-05 05:05:00,64.6,53.8,29.47,NNW,338,0.0,0.0,68,0.00,,,0.00,VWS V14.01,2013-09-05 09:05:00,
2013-09-05 05:10:00,64.6,53.8,29.47,West,270,2.9,2.9,68,0.00,,,0.00,VWS V14.01,2013-09-05 09:10:00,
2013-09-05 05:15:00,64.4,54.0,29.47,West,270,2.0,2.0,69,0.00,,,0.00,VWS V14.01,2013-09-05 09:15:00,
2013-09-05 05:20:00,64.6,54.2,29.47,SE,135,2.5,2.5,69,0.00,,,0.00,VWS V14.01,2013-09-05 09:20:00,
2013-09-05 05:25:00,64.6,54.6,29.47,WNW,292,3.1,3.1,70,0.00,,,0.00,VWS V14.01,2013-09-05 09:25:00,
2013-09-05 05:30:00,64.8,54.4,29.47,WSW,248,0.0,0.0,69,0.00,,,0.00,VWS V14.01,2013-09-05 09:30:00,
2013-09-05 05:35:00,64.6,54.2,29.47,WSW,248,0.0,0.0,69,0.00,,,0.00,VWS V14.01,2013-09-05 09:35:00,
2013-09-05 05:40:00,64.4,54.0,29.47,West,270,4.3,4.3,69,0.00,,,0.00,VWS V14.01,2013-09-05 09:40:00,
2013-09-05 05:45:00,64.8,54.8,29.47,WNW,292,3.4,3.4,70,0.00,,,0.00,VWS V14.01,2013-09-05 09:45:00,
2013-09-05 05:50:00,65.3,55.3,29.47,West,270,5.4,5.4,70,0.00,,,0.00,VWS V14.01,2013-09-05 09:50:00,
2013-09-05 05:55:00,65.7,55.2,29.50,West,270,4.7,4.7,69,0.00,,,0.00,VWS V14.01,2013-09-05 09:55:00,
2013-09-05 06:00:00,65.8,55.4,29.50,WNW,292,3.6,3.6,69,0.00,,,0.00,VWS V14.01,2013-09-05 10:00:00,
2013-09-05 06:05:00,66.2,55.3,29.50,West,270,3.6,3.6,68,0.00,,,0.00,VWS V14.01,2013-09-05 10:05:00,
2013-09-05 06:11:00,66.4,55.5,29.50,WNW,292,3.1,3.1,68,0.00,,,0.00,VWS V14.01,2013-09-05 10:11:00,
2013-09-05 06:16:00,66.6,55.3,29.50,WNW,292,5.8,5.8,67,0.00,,,0.00,VWS V14.01,2013-09-05 10:16:00,
2013-09-05 06:21:00,66.7,55.5,29.50,WNW,292,5.6,5.6,67,0.00,,,0.00,VWS V14.01,2013-09-05 10:21:00,
2013-09-05 06:26:00,66.9,55.6,29.50,WNW,292,6.3,6.3,67,0.00,,,0.00,VWS V14.01,2013-09-05 10:26:00,
2013-09-05 06:31:00,66.9,55.2,29.50,NW,315,4.0,4.0,66,0.00,,,0.00,VWS V14.01,2013-09-05 10:31:00,
2013-09-05 06:36:00,66.9,55.2,29.50,WNW,292,4.9,4.9,66,0.00,,,0.00,VWS V14.01,2013-09-05 10:36:00,
2013-09-05 06:41:00,66.9,55.2,29.50,WNW,292,3.1,3.1,66,0.00,,,0.00,VWS V14.01,2013-09-05 10:41:00,
2013-09-05 06:46:00,66.9,55.2,29.50,WNW,292,3.6,3.6,66,0.00,,,0.00,VWS V14.01,2013-09-05 10:46:00,
2013-09-05 06:51:00,66.9,55.2,29.50,WSW,248,5.6,5.6,66,0.00,,,0.00,VWS V14.01,2013-09-05 10:51:00,
2013-09-05 06:56:00,66.9,55.2,29.47,WNW,292,3.8,3.8,66,0.00,,,0.00,VWS V14.01,2013-09-05 10:56:00,
2013-09-05 07:01:00,67.1,55.4,29.47,West,270,3.6,3.6,66,0.00,,,0.00,VWS V14.01,2013-09-05 11:01:00,
2013-09-05 07:07:00,67.1,55.4,29.47,WNW,292,4.0,4.0,66,0.00,,,0.00,VWS V14.01,2013-09-05 11:07:00,
2013-09-05 07:12:00,67.3,55.1,29.50,NNW,338,3.8,3.8,65,0.00,,,0.00,VWS V14.01,2013-09-05 11:12:00,
2013-09-05 07:17:00,67.5,55.3,29.50,NW,315,3.4,3.4,65,0.00,,,0.00,VWS V14.01,2013-09-05 11:17:00,
2013-09-05 07:22:00,67.5,55.3,29.50,WNW,292,3.8,3.8,65,0.00,,,0.00,VWS V14.01,2013-09-05 11:22:00,
2013-09-05 07:27:00,67.6,55.5,29.50,WNW,292,3.1,3.1,65,0.00,,,0.00,VWS V14.01,2013-09-05 11:27:00,
2013-09-05 07:32:00,67.6,55.5,29.50,NW,315,3.4,3.4,65,0.00,,,0.00,VWS V14.01,2013-09-05 11:32:00,
2013-09-05 07:37:00,67.8,55.6,29.50,WNW,292,3.1,3.1,65,0.00,,,0.00,VWS V14.01,2013-09-05 11:37:00,
2013-09-05 07:42:00,68.0,55.8,29.53,West,270,5.4,5.4,65,0.00,,,0.00,VWS V14.01,2013-09-05 11:42:00,
2013-09-05 07:47:00,68.2,56.0,29.53,West,270,3.6,3.6,65,0.00,,,0.00,VWS V14.01,2013-09-05 11:47:00,
2013-09-05 07:52:00,68.4,55.7,29.53,NW,315,1.6,1.6,64,0.00,,,0.00,VWS V14.01,2013-09-05 11:52:00,
2013-09-05 07:57:00,68.4,55.7,29.50,WNW,292,2.9,2.9,64,0.00,,,0.00,VWS V14.01,2013-09-05 11:57:00,
2013-09-05 08:02:00,68.4,55.7,29.50,West,270,1.6,1.6,64,0.00,,,0.00,VWS V14.01,2013-09-05 12:02:00,
2013-09-05 08:07:00,68.5,55.9,29.50,WNW,292,2.2,2.2,64,0.00,,,0.00,VWS V14.01,2013-09-05 12:07:00,
2013-09-05 08:12:00,68.5,55.9,29.50,WNW,292,1.3,1.3,64,0.00,,,0.00,VWS V14.01,2013-09-05 12:12:00,
2013-09-05 08:17:00,68.7,55.6,29.50,WNW,292,2.0,2.0,63,0.00,,,0.00,VWS V14.01,2013-09-05 12:17:00,
2013-09-05 08:22:00,68.7,55.6,29.50,West,270,3.1,3.1,63,0.00,,,0.00,VWS V14.01,2013-09-05 12:22:00,
2013-09-05 08:27:00,68.9,55.8,29.53,NW,315,3.6,3.6,63,0.00,,,0.00,VWS V14.01,2013-09-05 12:27:00,
2013-09-05 08:32:00,68.9,55.8,29.53,WNW,292,3.4,3.4,63,0.00,,,0.00,VWS V14.01,2013-09-05 12:32:00,
2013-09-05 08:37:00,68.9,55.4,29.53,WNW,292,2.5,2.5,62,0.00,,,0.00,VWS V14.01,2013-09-05 12:37:00,
2013-09-05 08:42:00,68.9,55.8,29.50,NW,315,2.5,2.5,63,0.00,,,0.00,VWS V14.01,2013-09-05 12:42:00,
2013-09-05 08:47:00,69.1,55.1,29.50,NNW,338,3.4,3.4,61,0.00,,,0.00,VWS V14.01,2013-09-05 12:47:00,
2013-09-05 08:52:00,69.3,55.7,29.50,NNE,22,2.2,2.2,62,0.00,,,0.00,VWS V14.01,2013-09-05 12:52:00,
2013-09-05 08:57:00,69.3,55.7,29.50,NNE,22,3.1,3.1,62,0.00,,,0.00,VWS V14.01,2013-09-05 12:57:00,
2013-09-05 09:02:00,69.4,55.4,29.50,NW,315,4.5,4.5,61,0.00,,,0.00,VWS V14.01,2013-09-05 13:02:00,
2013-09-05 09:07:00,69.6,55.6,29.50,NNW,338,3.4,3.4,61,0.00,,,0.00,VWS V14.01,2013-09-05 13:07:00,
2013-09-05 09:12:00,69.8,55.8,29.50,NNW,338,3.4,3.4,61,0.00,,,0.00,VWS V14.01,2013-09-05 13:12:00,
2013-09-05 09:18:00,69.8,55.8,29.50,NNE,22,7.8,7.8,61,0.00,,,0.00,VWS V14.01,2013-09-05 13:18:00,
2013-09-05 09:23:00,69.8,54.8,29.50,NW,315,3.4,3.4,59,0.00,,,0.00,VWS V14.01,2013-09-05 13:23:00,
2013-09-05 09:28:00,69.8,54.8,29.50,North,0,4.9,4.9,59,0.00,,,0.00,VWS V14.01,2013-09-05 13:28:00,
2013-09-05 09:33:00,70.0,55.5,29.50,NNW,338,4.3,4.3,60,0.00,,,0.00,VWS V14.01,2013-09-05 13:33:00,
2013-09-05 09:38:00,70.2,55.2,29.50,NNW,338,3.1,3.1,59,0.00,,,0.00,VWS V14.01,2013-09-05 13:38:00,
2013-09-05 09:43:00,70.2,54.7,29.53,WNW,292,3.8,3.8,58,0.00,,,0.00,VWS V14.01,2013-09-05 13:43:00,
2013-09-05 09:48:00,70.3,54.4,29.53,NNW,338,8.5,8.5,57,0.00,,,0.00,VWS V14.01,2013-09-05 13:48:00,
2013-09-05 09:53:00,70.2,53.8,29.53,NNE,22,9.8,9.8,56,0.00,,,0.00,VWS V14.01,2013-09-05 13:53:00,
2013-09-05 09:58:00,70.2,54.2,29.53,NNE,22,7.4,7.4,57,0.00,,,0.00,VWS V14.01,2013-09-05 13:58:00,
2013-09-05 10:03:00,70.2,53.8,29.53,North,0,8.7,8.7,56,0.00,,,0.00,VWS V14.01,2013-09-05 14:03:00,
2013-09-05 10:08:00,70.3,54.4,29.53,NNE,22,9.8,9.8,57,0.00,,,0.00,VWS V14.01,2013-09-05 14:08:00,
2013-09-05 10:13:00,70.3,53.9,29.53,NNE,22,8.5,8.5,56,0.00,,,0.00,VWS V14.01,2013-09-05 14:13:00,
2013-09-05 10:18:00,70.3,54.4,29.53,North,0,5.8,5.8,57,0.00,,,0.00,VWS V14.01,2013-09-05 14:18:00,
2013-09-05 10:23:00,70.5,54.6,29.53,West,270,5.8,5.8,57,0.00,,,0.00,VWS V14.01,2013-09-05 14:23:00,
2013-09-05 10:29:00,70.5,54.1,29.53,WNW,292,3.6,3.6,56,0.00,,,0.00,VWS V14.01,2013-09-05 14:29:00,
2013-09-05 10:34:00,70.7,54.7,29.53,NNE,22,4.9,4.9,57,0.00,,,0.00,VWS V14.01,2013-09-05 14:34:00,
2013-09-05 10:39:00,70.7,54.2,29.53,NNE,22,11.2,11.2,56,0.00,,,0.00,VWS V14.01,2013-09-05 14:39:00,
2013-09-05 10:44:00,70.9,54.4,29.53,NNW,338,5.8,5.8,56,0.00,,,0.00,VWS V14.01,2013-09-05 14:44:00,
2013-09-05 10:49:00,70.9,53.9,29.53,NNW,338,9.4,9.4,55,0.00,,,0.00,VWS V14.01,2013-09-05 14:49:00,
2013-09-05 10:54:00,70.7,54.7,29.53,ENE,68,14.3,14.3,57,0.00,,,0.00,VWS V14.01,2013-09-05 14:54:00,
2013-09-05 10:59:00,70.3,54.4,29.56,NE,45,10.7,10.7,57,0.00,,,0.00,VWS V14.01,2013-09-05 14:59:00,
2013-09-05 11:04:00,70.0,54.1,29.56,NNE,22,9.8,9.8,57,0.00,,,0.00,VWS V14.01,2013-09-05 15:04:00,
2013-09-05 11:09:00,70.2,54.7,29.56,NE,45,10.7,10.7,58,0.00,,,0.00,VWS V14.01,2013-09-05 15:09:00,
2013-09-05 11:14:00,70.0,54.1,29.56,NNE,22,7.4,7.4,57,0.00,,,0.00,VWS V14.01,2013-09-05 15:14:00,
2013-09-05 11:19:00,70.2,54.2,29.56,NE,45,12.3,12.3,57,0.00,,,0.00,VWS V14.01,2013-09-05 15:19:00,
2013-09-05 11:24:00,70.5,55.0,29.56,NE,45,7.6,7.6,58,0.00,,,0.00,VWS V14.01,2013-09-05 15:24:00,
2013-09-05 11:29:00,70.7,54.2,29.56,NNE,22,14.5,14.5,56,0.00,,,0.00,VWS V14.01,2013-09-05 15:29:00,
2013-09-05 11:34:00,70.9,53.9,29.56,NNE,22,7.4,7.4,55,0.00,,,0.00,VWS V14.01,2013-09-05 15:34:00,
2013-09-05 11:40:00,71.1,53.1,29.53,NNE,22,14.3,14.3,53,0.00,,,0.00,VWS V14.01,2013-09-05 15:40:00,
2013-09-05 11:45:00,71.2,53.2,29.53,NE,45,10.5,10.5,53,0.00,,,0.00,VWS V14.01,2013-09-05 15:45:00,
2013-09-05 11:50:00,71.4,52.4,29.53,NNE,22,13.2,13.2,51,0.00,,,0.00,VWS V14.01,2013-09-05 15:50:00,
2013-09-05 11:55:00,71.4,51.8,29.56,NNE,22,6.3,6.3,50,0.00,,,0.00,VWS V14.01,2013-09-05 15:55:00,
2013-09-05 12:00:00,71.6,52.0,29.56,East,90,5.4,5.4,50,0.00,,,0.00,VWS V14.01,2013-09-05 16:00:00,
2013-09-05 12:05:00,71.8,51.6,29.56,NNE,22,10.7,10.7,49,0.00,,,0.00,VWS V14.01,2013-09-05 16:05:00,
2013-09-05 12:10:00,72.1,50.8,29.56,NNE,22,11.0,11.0,47,0.00,,,0.00,VWS V14.01,2013-09-05 16:10:00,
2013-09-05 12:15:00,72.1,49.0,29.56,NNE,22,8.5,8.5,44,0.00,,,0.00,VWS V14.01,2013-09-05 16:15:00,
2013-09-05 12:20:00,72.3,49.8,29.56,NNE,22,15.9,15.9,45,0.00,,,0.00,VWS V14.01,2013-09-05 16:20:00,
2013-09-05 12:25:00,72.5,48.8,29.53,NNE,22,13.2,13.2,43,0.00,,,0.00,VWS V14.01,2013-09-05 16:25:00,
2013-09-05 12:30:00,72.7,48.3,29.53,NNE,22,19.2,19.2,42,0.00,,,0.00,VWS V14.01,2013-09-05 16:30:00,
2013-09-05 12:35:00,73.0,47.3,29.53,NNE,22,13.6,13.6,40,0.00,,,0.00,VWS V14.01,2013-09-05 16:35:00,
2013-09-05 12:40:00,73.2,47.5,29.53,NNE,22,13.4,13.4,40,0.00,,,0.00,VWS V14.01,2013-09-05 16:40:00,
2013-09-05 12:45:00,73.4,44.8,29.53,NE,45,7.8,7.8,36,0.00,,,0.00,VWS V14.01,2013-09-05 16:45:00,
2013-09-05 12:50:00,73.8,43.7,29.53,NNE,22,15.2,15.2,34,0.00,,,0.00,VWS V14.01,2013-09-05 16:50:00,
2013-09-05 12:55:00,73.8,42.1,29.53,NNE,22,12.5,12.5,32,0.00,,,0.00,VWS V14.01,2013-09-05 16:55:00,
2013-09-05 13:01:00,73.9,41.4,29.53,NE,45,16.6,16.6,31,0.00,,,0.00,VWS V14.01,2013-09-05 17:01:00,
2013-09-05 13:06:00,73.9,39.7,29.53,NE,45,11.0,11.0,29,0.00,,,0.00,VWS V14.01,2013-09-05 17:06:00,
2013-09-05 13:11:00,74.3,41.7,29.50,NNE,22,10.7,10.7,31,0.00,,,0.00,VWS V14.01,2013-09-05 17:11:00,
2013-09-05 13:16:00,74.1,39.0,29.50,NE,45,19.9,19.9,28,0.00,,,0.00,VWS V14.01,2013-09-05 17:16:00,
2013-09-05 13:21:00,74.1,39.0,29.50,NNE,22,17.7,17.7,28,0.00,,,0.00,VWS V14.01,2013-09-05 17:21:00,
2013-09-05 13:26:00,74.1,39.9,29.53,NNE,22,12.5,12.5,29,0.00,,,0.00,VWS V14.01,2013-09-05 17:26:00,
2013-09-05 13:31:00,74.3,40.9,29.53,NNE,22,13.9,13.9,30,0.00,,,0.00,VWS V14.01,2013-09-05 17:31:00,
2013-09-05 13:36:00,74.5,41.0,29.53,NNE,22,14.8,14.8,30,0.00,,,0.00,VWS V14.01,2013-09-05 17:36:00,
2013-09-05 13:41:00,74.7,39.4,29.50,NNE,22,12.8,12.8,28,0.00,,,0.00,VWS V14.01,2013-09-05 17:41:00,
2013-09-05 13:46:00,74.7,40.3,29.50,NE,45,13.2,13.2,29,0.00,,,0.00,VWS V14.01,2013-09-05 17:46:00,
2013-09-05 13:51:00,74.7,40.3,29.50,NNE,22,13.2,13.2,29,0.00,,,0.00,VWS V14.01,2013-09-05 17:51:00,
2013-09-05 13:56:00,75.0,40.6,29.53,NNE,22,17.7,17.7,29,0.00,,,0.00,VWS V14.01,2013-09-05 17:56:00,
2013-09-05 14:01:00,75.0,39.7,29.53,NNE,22,17.5,17.5,28,0.00,,,0.00,VWS V14.01,2013-09-05 18:01:00,
2013-09-05 14:06:00,74.8,40.5,29.53,NNW,338,10.3,10.3,29,0.00,,,0.00,VWS V14.01,2013-09-05 18:06:00,
2013-09-05 14:12:00,75.0,40.6,29.50,NNE,22,13.2,13.2,29,0.00,,,0.00,VWS V14.01,2013-09-05 18:12:00,
2013-09-05 14:17:00,75.4,41.0,29.50,NNE,22,14.8,14.8,29,0.00,,,0.00,VWS V14.01,2013-09-05 18:17:00,
2013-09-05 14:22:00,75.2,39.0,29.50,NNE,22,10.7,10.7,27,0.00,,,0.00,VWS V14.01,2013-09-05 18:22:00,
2013-09-05 14:27:00,75.2,41.7,29.50,NNE,22,17.2,17.2,30,0.00,,,0.00,VWS V14.01,2013-09-05 18:27:00,
2013-09-05 14:32:00,75.2,40.8,29.50,NE,45,13.2,13.2,29,0.00,,,0.00,VWS V14.01,2013-09-05 18:32:00,
2013-09-05 14:37:00,75.2,40.8,29.50,NE,45,16.3,16.3,29,0.00,,,0.00,VWS V14.01,2013-09-05 18:37:00,
2013-09-05 14:42:00,75.2,40.8,29.50,NNE,22,12.3,12.3,29,0.00,,,0.00,VWS V14.01,2013-09-05 18:42:00,
2013-09-05 14:47:00,75.2,39.9,29.50,NNE,22,10.3,10.3,28,0.00,,,0.00,VWS V14.01,2013-09-05 18:47:00,
2013-09-05 14:52:00,75.2,41.7,29.50,NNE,22,7.8,7.8,30,0.00,,,0.00,VWS V14.01,2013-09-05 18:52:00,
2013-09-05 14:57:00,75.6,40.2,29.50,NNW,338,10.1,10.1,28,0.00,,,0.00,VWS V14.01,2013-09-05 18:57:00,
2013-09-05 15:02:00,75.6,39.3,29.50,NNE,22,9.8,9.8,27,0.00,,,0.00,VWS V14.01,2013-09-05 19:02:00,
2013-09-05 15:07:00,75.4,40.0,29.50,NNE,22,10.7,10.7,28,0.00,,,0.00,VWS V14.01,2013-09-05 19:07:00,
2013-09-05 15:12:00,75.4,40.0,29.50,NNE,22,16.6,16.6,28,0.00,,,0.00,VWS V14.01,2013-09-05 19:12:00,
2013-09-05 15:17:00,75.4,39.1,29.50,NNE,22,11.0,11.0,27,0.00,,,0.00,VWS V14.01,2013-09-05 19:17:00,
2013-09-05 15:22:00,75.4,39.1,29.50,NW,315,8.1,8.1,27,0.00,,,0.00,VWS V14.01,2013-09-05 19:22:00,
2013-09-05 15:27:00,75.4,39.1,29.47,NNE,22,12.3,12.3,27,0.00,,,0.00,VWS V14.01,2013-09-05 19:27:00,
2013-09-05 15:32:00,75.2,39.0,29.47,NNE,22,11.0,11.0,27,0.00,,,0.00,VWS V14.01,2013-09-05 19:32:00,
2013-09-05 15:37:00,75.4,39.1,29.47,North,0,11.4,11.4,27,0.00,,,0.00,VWS V14.01,2013-09-05 19:37:00,
2013-09-05 15:42:00,75.6,39.3,29.50,NNE,22,12.1,12.1,27,0.00,,,0.00,VWS V14.01,2013-09-05 19:42:00,
2013-09-05 15:48:00,75.7,40.3,29.50,NNE,22,8.7,8.7,28,0.00,,,0.00,VWS V14.01,2013-09-05 19:48:00,
2013-09-05 15:53:00,75.9,39.6,29.50,NNW,338,11.9,11.9,27,0.00,,,0.00,VWS V14.01,2013-09-05 19:53:00,
2013-09-05 15:58:00,75.6,39.3,29.50,NNE,22,12.5,12.5,27,0.00,,,0.00,VWS V14.01,2013-09-05 19:58:00,
2013-09-05 16:03:00,75.4,40.0,29.50,NNE,22,16.8,16.8,28,0.00,,,0.00,VWS V14.01,2013-09-05 20:03:00,
2013-09-05 16:08:00,75.6,39.3,29.50,NE,45,13.2,13.2,27,0.00,,,0.00,VWS V14.01,2013-09-05 20:08:00,
2013-09-05 16:13:00,75.6,39.3,29.50,NNE,22,10.5,10.5,27,0.00,,,0.00,VWS V14.01,2013-09-05 20:13:00,
2013-09-05 16:18:00,75.2,39.0,29.50,NE,45,15.4,15.4,27,0.00,,,0.00,VWS V14.01,2013-09-05 20:18:00,
2013-09-05 16:23:00,75.0,37.8,29.50,NNE,22,15.2,15.2,26,0.00,,,0.00,VWS V14.01,2013-09-05 20:23:00,
2013-09-05 16:28:00,74.8,37.7,29.50,NNE,22,12.8,12.8,26,0.00,,,0.00,VWS V14.01,2013-09-05 20:28:00,
2013-09-05 16:33:00,74.5,38.3,29.50,NE,45,6.3,6.3,27,0.00,,,0.00,VWS V14.01,2013-09-05 20:33:00,
2013-09-05 16:39:00,74.3,38.2,29.50,NNE,22,9.8,9.8,27,0.00,,,0.00,VWS V14.01,2013-09-05 20:39:00,
2013-09-05 16:44:00,74.3,39.1,29.50,NNE,22,7.2,7.2,28,0.00,,,0.00,VWS V14.01,2013-09-05 20:44:00,
2013-09-05 16:49:00,74.3,39.1,29.50,NNE,22,10.1,10.1,28,0.00,,,0.00,VWS V14.01,2013-09-05 20:49:00,
2013-09-05 16:54:00,74.5,40.2,29.50,North,0,3.4,3.4,29,0.00,,,0.00,VWS V14.01,2013-09-05 20:54:00,
2013-09-05 16:59:00,74.5,40.2,29.50,NNE,22,8.7,8.7,29,0.00,,,0.00,VWS V14.01,2013-09-05 20:59:00,
2013-09-05 17:04:00,74.5,41.0,29.50,North,0,7.4,7.4,30,0.00,,,0.00,VWS V14.01,2013-09-05 21:04:00,
2013-09-05 17:09:00,74.3,40.9,29.50,NE,45,10.1,10.1,30,0.00,,,0.00,VWS V14.01,2013-09-05 21:09:00,
2013-09-05 17:14:00,73.9,41.4,29.53,NNE,22,4.3,4.3,31,0.00,,,0.00,VWS V14.01,2013-09-05 21:14:00,
2013-09-05 17:19:00,73.8,41.3,29.53,NNE,22,7.8,7.8,31,0.00,,,0.00,VWS V14.01,2013-09-05 21:19:00,
2013-09-05 17:24:00,73.9,41.4,29.53,ENE,68,9.6,9.6,31,0.00,,,0.00,VWS V14.01,2013-09-05 21:24:00,
2013-09-05 17:29:00,74.1,41.6,29.53,NE,45,16.6,16.6,31,0.00,,,0.00,VWS V14.01,2013-09-05 21:29:00,
2013-09-05 17:34:00,73.6,41.1,29.53,NNE,22,6.7,6.7,31,0.00,,,0.00,VWS V14.01,2013-09-05 21:34:00,
2013-09-05 17:39:00,73.4,41.0,29.53,NNE,22,6.5,6.5,31,0.00,,,0.00,VWS V14.01,2013-09-05 21:39:00,
2013-09-05 17:44:00,74.3,41.7,29.53,NNE,22,10.5,10.5,31,0.00,,,0.00,VWS V14.01,2013-09-05 21:44:00,
2013-09-05 17:49:00,75.7,43.0,29.53,NNE,22,10.1,10.1,31,0.00,,,0.00,VWS V14.01,2013-09-05 21:49:00,
2013-09-05 17:54:00,75.2,41.7,29.53,NNE,22,10.1,10.1,30,0.00,,,0.00,VWS V14.01,2013-09-05 21:54:00,
2013-09-05 17:59:00,74.3,41.7,29.56,NE,45,6.7,6.7,31,0.00,,,0.00,VWS V14.01,2013-09-05 21:59:00,
2013-09-05 18:04:00,73.8,41.3,29.56,NNE,22,6.3,6.3,31,0.00,,,0.00,VWS V14.01,2013-09-05 22:04:00,
2013-09-05 18:09:00,73.2,40.8,29.56,NNE,22,7.8,7.8,31,0.00,,,0.00,VWS V14.01,2013-09-05 22:09:00,
2013-09-05 18:14:00,72.7,40.3,29.53,NNE,22,6.5,6.5,31,0.00,,,0.00,VWS V14.01,2013-09-05 22:14:00,
2013-09-05 18:19:00,72.3,40.8,29.53,NNE,22,6.7,6.7,32,0.00,,,0.00,VWS V14.01,2013-09-05 22:19:00,
2013-09-05 18:24:00,72.0,40.5,29.53,NNE,22,7.6,7.6,32,0.00,,,0.00,VWS V14.01,2013-09-05 22:24:00,
2013-09-05 18:29:00,72.1,40.7,29.53,NE,45,7.8,7.8,32,0.00,,,0.00,VWS V14.01,2013-09-05 22:29:00,
2013-09-05 18:34:00,72.1,40.7,29.53,NNE,22,9.8,9.8,32,0.00,,,0.00,VWS V14.01,2013-09-05 22:34:00,
2013-09-05 18:39:00,72.0,40.5,29.53,NNE,22,4.3,4.3,32,0.00,,,0.00,VWS V14.01,2013-09-05 22:39:00,
2013-09-05 18:44:00,72.0,40.5,29.56,NE,45,7.2,7.2,32,0.00,,,0.00,VWS V14.01,2013-09-05 22:44:00,
2013-09-05 18:49:00,71.8,40.4,29.56,NE,45,6.9,6.9,32,0.00,,,0.00,VWS V14.01,2013-09-05 22:49:00,
2013-09-05 18:54:00,71.6,40.2,29.56,NNE,22,6.5,6.5,32,0.00,,,0.00,VWS V14.01,2013-09-05 22:54:00,
2013-09-05 18:59:00,71.2,40.7,29.56,NNE,22,6.3,6.3,33,0.00,,,0.00,VWS V14.01,2013-09-05 22:59:00,
2013-09-05 19:04:00,71.1,40.5,29.56,NNE,22,4.0,4.0,33,0.00,,,0.00,VWS V14.01,2013-09-05 23:04:00,
2013-09-05 19:10:00,70.7,40.2,29.56,NNE,22,3.6,3.6,33,0.00,,,0.00,VWS V14.01,2013-09-05 23:10:00,
2013-09-05 19:15:00,70.5,40.1,29.56,NNE,22,3.1,3.1,33,0.00,,,0.00,VWS V14.01,2013-09-05 23:15:00,
2013-09-05 19:20:00,70.2,40.5,29.56,NE,45,2.2,2.2,34,0.00,,,0.00,VWS V14.01,2013-09-05 23:20:00,
2013-09-05 19:25:00,69.8,40.2,29.56,NE,45,2.0,2.0,34,0.00,,,0.00,VWS V14.01,2013-09-05 23:25:00,
2013-09-05 19:30:00,69.6,40.0,29.56,NNE,22,4.9,4.9,34,0.00,,,0.00,VWS V14.01,2013-09-05 23:30:00,
2013-09-05 19:35:00,69.4,39.9,29.56,NNE,22,3.1,3.1,34,0.00,,,0.00,VWS V14.01,2013-09-05 23:35:00,
2013-09-05 19:40:00,69.1,40.3,29.56,NNE,22,6.5,6.5,35,0.00,,,0.00,VWS V14.01,2013-09-05 23:40:00,
2013-09-05 19:45:00,68.9,39.4,29.56,NNE,22,5.6,5.6,34,0.00,,,0.00,VWS V14.01,2013-09-05 23:45:00,
2013-09-05 19:50:00,68.9,39.4,29.56,NNE,22,3.8,3.8,34,0.00,,,0.00,VWS V14.01,2013-09-05 23:50:00,
2013-09-05 19:55:00,68.7,39.2,29.56,NNE,22,4.0,4.0,34,0.00,,,0.00,VWS V14.01,2013-09-05 23:55:00,
2013-09-05 20:00:00,68.5,39.8,29.56,North,0,5.4,5.4,35,0.00,,,0.00,VWS V14.01,2013-09-06 00:00:00,
2013-09-05 20:05:00,68.4,39.7,29.56,NNE,22,6.0,6.0,35,0.00,,,0.00,VWS V14.01,2013-09-06 00:05:00,
2013-09-05 20:10:00,68.4,39.7,29.56,NNE,22,6.0,6.0,35,0.00,,,0.00,VWS V14.01,2013-09-06 00:10:00,
2013-09-05 20:15:00,68.2,39.5,29.56,NNE,22,7.6,7.6,35,0.00,,,0.00,VWS V14.01,2013-09-06 00:15:00,
2013-09-05 20:21:00,68.2,39.5,29.56,NE,45,7.4,7.4,35,0.00,,,0.00,VWS V14.01,2013-09-06 00:21:00,
2013-09-05 20:26:00,68.0,40.1,29.56,NNE,22,6.0,6.0,36,0.00,,,0.00,VWS V14.01,2013-09-06 00:26:00,
2013-09-05 20:31:00,67.6,39.8,29.56,NNE,22,7.8,7.8,36,0.00,,,0.00,VWS V14.01,2013-09-06 00:31:00,
2013-09-05 20:36:00,67.5,40.3,29.56,ENE,68,11.0,11.0,37,0.00,,,0.00,VWS V14.01,2013-09-06 00:36:00,
2013-09-05 20:41:00,67.3,40.8,29.59,NE,45,14.8,14.8,38,0.00,,,0.00,VWS V14.01,2013-09-06 00:41:00,
2013-09-05 20:46:00,67.1,41.3,29.59,NE,45,9.6,9.6,39,0.00,,,0.00,VWS V14.01,2013-09-06 00:46:00,
2013-09-05 20:51:00,66.7,41.7,29.59,NNE,22,7.4,7.4,40,0.00,,,0.00,VWS V14.01,2013-09-06 00:51:00,
2013-09-05 20:56:00,66.6,42.2,29.59,NE,45,10.7,10.7,41,0.00,,,0.00,VWS V14.01,2013-09-06 00:56:00,
2013-09-05 21:01:00,66.2,42.5,29.59,NE,45,8.1,8.1,42,0.00,,,0.00,VWS V14.01,2013-09-06 01:01:00,
2013-09-05 21:06:00,66.0,42.9,29.59,NE,45,6.3,6.3,43,0.00,,,0.00,VWS V14.01,2013-09-06 01:06:00,
2013-09-05 21:11:00,65.8,42.7,29.62,NE,45,6.5,6.5,43,0.00,,,0.00,VWS V14.01,2013-09-06 01:11:00,
2013-09-05 21:16:00,65.7,43.2,29.62,NNE,22,3.1,3.1,44,0.00,,,0.00,VWS V14.01,2013-09-06 01:16:00,
2013-09-05 21:21:00,65.5,43.0,29.62,NNE,22,8.1,8.1,44,0.00,,,0.00,VWS V14.01,2013-09-06 01:21:00,
2013-09-05 21:26:00,65.1,42.7,29.62,NNE,22,6.0,6.0,44,0.00,,,0.00,VWS V14.01,2013-09-06 01:26:00,
2013-09-05 21:31:00,64.9,42.5,29.62,ENE,68,7.6,7.6,44,0.00,,,0.00,VWS V14.01,2013-09-06 01:31:00,
2013-09-05 21:36:00,64.8,42.4,29.62,ENE,68,7.2,7.2,44,0.00,,,0.00,VWS V14.01,2013-09-06 01:36:00,
2013-09-05 21:42:00,64.6,42.2,29.59,NE,45,5.8,5.8,44,0.00,,,0.00,VWS V14.01,2013-09-06 01:42:00,
2013-09-05 21:47:00,64.4,42.0,29.59,ENE,68,4.0,4.0,44,0.00,,,0.00,VWS V14.01,2013-09-06 01:47:00,
2013-09-05 21:52:00,64.2,42.5,29.59,NE,45,7.4,7.4,45,0.00,,,0.00,VWS V14.01,2013-09-06 01:52:00,
2013-09-05 21:57:00,64.2,42.5,29.59,NE,45,3.8,3.8,45,0.00,,,0.00,VWS V14.01,2013-09-06 01:57:00,
2013-09-05 22:02:00,64.0,42.9,29.59,ENE,68,5.4,5.4,46,0.00,,,0.00,VWS V14.01,2013-09-06 02:02:00,
2013-09-05 22:07:00,63.9,42.1,29.59,NE,45,5.8,5.8,45,0.00,,,0.00,VWS V14.01,2013-09-06 02:07:00,
2013-09-05 22:12:00,63.9,42.1,29.62,NNE,22,4.9,4.9,45,0.00,,,0.00,VWS V14.01,2013-09-06 02:12:00,
2013-09-05 22:17:00,63.7,42.0,29.62,NE,45,4.3,4.3,45,0.00,,,0.00,VWS V14.01,2013-09-06 02:17:00,
2013-09-05 22:22:00,63.5,41.8,29.62,NE,45,10.3,10.3,45,0.00,,,0.00,VWS V14.01,2013-09-06 02:22:00,
2013-09-05 22:27:00,63.5,41.8,29.62,ENE,68,8.5,8.5,45,0.00,,,0.00,VWS V14.01,2013-09-06 02:27:00,
2013-09-05 22:32:00,63.3,41.6,29.62,NNE,22,10.5,10.5,45,0.00,,,0.00,VWS V14.01,2013-09-06 02:32:00,
2013-09-05 22:37:00,63.1,41.5,29.62,NNE,22,9.0,9.0,45,0.00,,,0.00,VWS V14.01,2013-09-06 02:37:00,
2013-09-05 22:42:00,63.0,41.3,29.65,ENE,68,8.5,8.5,45,0.00,,,0.00,VWS V14.01,2013-09-06 02:42:00,
2013-09-05 22:48:00,62.8,41.2,29.65,NNE,22,10.5,10.5,45,0.00,,,0.00,VWS V14.01,2013-09-06 02:48:00,
2013-09-05 22:53:00,62.8,41.2,29.65,NE,45,11.0,11.0,45,0.00,,,0.00,VWS V14.01,2013-09-06 02:53:00,
2013-09-05 22:58:00,62.6,41.0,29.65,NE,45,4.7,4.7,45,0.00,,,0.00,VWS V14.01,2013-09-06 02:58:00,
2013-09-05 23:03:00,62.4,41.4,29.65,NE,45,4.0,4.0,46,0.00,,,0.00,VWS V14.01,2013-09-06 03:03:00,
2013-09-05 23:08:00,62.2,41.2,29.65,East,90,2.5,2.5,46,0.00,,,0.00,VWS V14.01,2013-09-06 03:08:00,
2013-09-05 23:13:00,62.1,41.1,29.68,NE,45,6.0,6.0,46,0.00,,,0.00,VWS V14.01,2013-09-06 03:13:00,
2013-09-05 23:18:00,61.7,40.7,29.68,NE,45,3.6,3.6,46,0.00,,,0.00,VWS V14.01,2013-09-06 03:18:00,
2013-09-05 23:23:00,61.5,40.6,29.68,NE,45,2.5,2.5,46,0.00,,,0.00,VWS V14.01,2013-09-06 03:23:00,
2013-09-05 23:28:00,61.0,40.6,29.68,NE,45,2.7,2.7,47,0.00,,,0.00,VWS V14.01,2013-09-06 03:28:00,
2013-09-05 23:33:00,60.8,40.5,29.68,NE,45,4.9,4.9,47,0.00,,,0.00,VWS V14.01,2013-09-06 03:33:00,
2013-09-05 23:38:00,60.6,40.8,29.68,NNE,22,4.0,4.0,48,0.00,,,0.00,VWS V14.01,2013-09-06 03:38:00,
2013-09-05 23:44:00,60.6,40.8,29.68,NE,45,4.3,4.3,48,0.00,,,0.00,VWS V14.01,2013-09-06 03:44:00,
2013-09-05 23:49:00,60.4,41.2,29.68,NNE,22,3.8,3.8,49,0.00,,,0.00,VWS V14.01,2013-09-06 03:49:00,
2013-09-05 23:54:00,60.3,40.5,29.68,NE,45,3.4,3.4,48,0.00,,,0.00,VWS V14.01,2013-09-06 03:54:00,
2013-09-05 23:59:00,60.3,41.0,29.68,NE,45,4.9,4.9,49,0.00,,,0.00,VWS V14.01,2013-09-06 03:59:00,